Location: ????????
(60.4333°N, 46.4710°E)
Time: 04:20:15
(UTC+00:00)

Cosmos 2366 rocket - Pass Details

Date: 25 November 2020
Orbit: 955 x 997 km, 82.9° (Epoch: 19 January)

Event Time Altitude Azimuth Distance (km) Brightness Sun altitude
Rises 13:52:30 0° 344° (NNW) 3,695 7.0 -12.3°
Reaches altitude 10° 13:55:09 10° 351° (N) 2,738 6.2 -12.6°
Maximum altitude 14:01:12 48° 65° (ENE) 1,253 4.2 -13.3°
Drops below altitude 10° 14:07:09 10° 139° (SE) 2,697 6.1 -14.0°
Sets 14:09:44 0° 145° (SE) 3,635 6.8 -14.3°
